Regional Weather Roundup
Issued by NWS Midland/Odessa, TX

Home | Current Version | Previous Version | Text Only | Print | Product List | Glossary On
Versions: 1 2 3 4 5 6 7 8 9 10 11 12 13 14 15 16 17 18 19 20 21 22 23 24 25 26 27 28 29 30 31 32 33 34 35 36 37 38 39 40 41 42 43 44 45 46 47 48 49 50
766
ASUS44 KMAF 050401
RWRMAF
MIDLAND AREA WEATHER ROUNDUP
NATIONAL WEATHER SERVICE MIDLAND TX
1100 PM CDT WED MAY 04 2016

...IN SOUTHWEST TEXAS AND SOUTHEAST NEW MEXICO...

CITY           SKY/WX    TMP DP  RH WIND       PRES   REMARKS
ALPINE         CLEAR     60  19  21 CALM      30.25R
ANDREWS        FAIR      68  32  26 S5        30.12R
ARTESIA        CLEAR     63  27  25 SW10      30.14R HAZE
BIG SPRING     CLEAR     63  35  35 SE6       30.12R
CARLSBAD       CLEAR     63  25  23 SW9       30.11R
DRYDEN           N/A     69  32  25 NE6       30.09R
FORT STOCKTON  CLEAR     66  35  31 SE7       30.13R
GUAD PASS      NOT AVBL
HOBBS          CLEAR     63  27  25 SW5       30.15R
MARFA          CLEAR     57  21  24 NE8       30.23R
MIDLAND AIRPK  CLEAR     74  29  19 SE7       30.11R
MIDLAND INTL   CLEAR     68  29  23 E8        30.11R
ODESSA         CLEAR     70  25  18 S3        30.12R
PECOS          CLEAR     68  25  19 CALM      30.10R
PRESIDIO       FAIR      78  30  17 NE8       30.07R
SEMINOLE       CLEAR     64  31  29 CALM      30.14R
SNYDER           N/A     67  38  35 E8        30.10S
WINK           CLEAR     67  27  22 SE8       30.09R
$$
...OTHER STATIONS IN TEXAS...

CITY           SKY/WX    TMP DP  RH WIND       PRES   REMARKS
ABILENE        CLEAR     59  52  77 S8        30.08R
AMARILLO       CLEAR     58  40  51 SE8       30.15R
AUSTIN         CLEAR     61  56  83 W3        30.02R
BROWNSVILLE    CLEAR     65  61  87 SE5       30.04R
CORPUS CHRISTI CLEAR     66  58  75 S8        30.02R
DALLAS FTW     CLEAR     73  51  46 W9        29.98R
DEL RIO        CLEAR     69  52  54 CALM      30.03R
EL PASO        CLEAR     73  18  12 E8        30.09R
HOUSTON INT    CLEAR     65  58  78 W3        29.97R
LUBBOCK        CLEAR     61  33  35 E7        30.13R
SAN ANGELO     CLEAR     61  42  49 S7        30.08R
SAN ANTONIO    CLEAR     64  50  60 NW7       30.03R
WACO           CLEAR     60  54  80 NW5       30.01R
WICHITA FALLS  NOT AVBL
$$
...OTHER LOCATIONS IN NEW MEXICO...

CITY           SKY/WX    TMP DP  RH WIND       PRES   REMARKS
ALAMAGORDO     CLEAR     70  18  13 CALM      30.13S
ALBUQUERQUE    CLEAR     64  23  21 E5        30.17R
CANNON AFB     CLEAR     59  33  37 E7        30.17R
CLOVIS         CLEAR     57  36  44 E6        30.18R
HOLLOMAN AFB   CLEAR     70  19  14 E8        30.11R
ROSWELL        CLEAR     62  23  22 SW8       30.13R
RUIDOSO          N/A     55  19  24 S7        30.33R
SANTA FE       CLEAR     58  19  22 E3        30.23R
TRUTH OR CONSE CLEAR     70  22  16 SW3       30.14R
TUCUMCARI      CLEAR     58  34  40 S7        30.13R
$$




USA.gov is the U.S. government's official web portal to all federal, state and local government web resources and services.